| time (UTC) | temp F | wind direction | speed MPH | gust MPH | rain 1hr in | rain 24hr in | rain mn in | humidity % | barometer mb |
| 20260504081554 | 63 | 175 | 7.0 | 18.0 | 0.00 | 0.00 | 0.00 | 68 | 1012.1 |
| 20260504050012 | 67 | 160 | 4.0 | 10.0 | 0.00 | 0.00 | 0.00 | 58 | 1014.2 |
| 20260504044520 | 68 | 114 | 3.0 | 13.0 | 0.00 | 0.00 | 0.00 | 57 | 1014.3 |
| 20260504043012 | 68 | 196 | 5.0 | 11.0 | 0.00 | 0.00 | 0.00 | 56 | 1014.4 |
| 20260504041509 | 69 | 163 | 4.0 | 11.0 | 0.00 | 0.00 | 0.00 | 54 | 1014.5 |
| 20260504040009 | 69 | 171 | 5.0 | 10.0 | 0.00 | 0.00 | 0.00 | 53 | 1014.5 |
| 20260504034509 | 70 | 199 | 5.0 | 10.0 | 0.00 | 0.00 | 0.00 | 52 | 1014.5 |
| 20260504033009 | 70 | 167 | 3.0 | 9.0 | 0.00 | 0.00 | 0.00 | 51 | 1014.4 |
| 20260504031508 | 70 | 188 | 4.0 | 9.0 | 0.00 | 0.00 | 0.00 | 50 | 1014.3 |
| 20260504030025 | 71 | 186 | 6.0 | 12.0 | 0.00 | 0.00 | 0.00 | 49 | 1014.3 |
| 20260504024508 | 71 | 159 | 3.0 | 11.0 | 0.00 | 0.00 | 0.00 | 48 | 1014.2 |
| 20260504023006 | 72 | 170 | 3.0 | 12.0 | 0.00 | 0.00 | 0.00 | 47 | 1014.1 |
| 20260504021505 | 72 | 186 | 4.0 | 12.0 | 0.00 | 0.00 | 0.00 | 46 | 1014.0 |
| 20260504020005 | 72 | 184 | 6.0 | 12.0 | 0.00 | 0.00 | 0.00 | 45 | 1014.0 |
| 20260504014513 | 73 | 190 | 4.0 | 8.0 | 0.00 | 0.00 | 0.00 | 44 | 1014.0 |
| 20260504013005 | 74 | 138 | 5.0 | 14.0 | 0.00 | 0.00 | 0.00 | 42 | 1013.8 |
| 20260504011503 | 75 | 134 | 5.0 | 20.0 | 0.00 | 0.00 | 0.00 | 42 | 1013.8 |
| 20260504010003 | 75 | 148 | 6.0 | 13.0 | 0.00 | 0.00 | 0.00 | 41 | 1013.5 |
| 20260504004505 | 76 | 153 | 5.0 | 14.0 | 0.00 | 0.00 | 0.00 | 39 | 1013.6 |
| 20260504003003 | 78 | 137 | 5.0 | 12.0 | 0.00 | 0.00 | 0.00 | 37 | 1013.5 |
| 20260504001611 | 78 | 159 | 4.0 | 16.0 | 0.00 | 0.00 | 0.00 | 38 | 1013.7 |
| 20260504000057 | 79 | 207 | 5.0 | 16.0 | 0.00 | 0.00 | 0.00 | 39 | 1013.9 |
| 20260503234557 | 79 | 185 | 7.0 | 12.0 | 0.00 | 0.00 | 0.00 | 36 | 1013.9 |
| 20260503233057 | 80 | 217 | 5.0 | 14.0 | 0.00 | 0.00 | 0.00 | 36 | 1013.9 |
| 20260503231557 | 80 | 196 | 6.0 | 15.0 | 0.00 | 0.00 | 0.00 | 36 | 1014.1 |
| 20260503230059 | 80 | 186 | 6.0 | 17.0 | 0.00 | 0.00 | 0.00 | 36 | 1014.2 |
| 20260503224552 | 80 | 150 | 7.0 | 15.0 | 0.00 | 0.00 | 0.00 | 36 | 1014.3 |
| 20260503223057 | 80 | 167 | 5.0 | 15.0 | 0.00 | 0.00 | 0.00 | 35 | 1014.5 |
| 20260503221552 | 80 | 155 | 5.0 | 10.0 | 0.00 | 0.00 | 0.00 | 36 | 1014.5 |
| 20260503220047 | 80 | 192 | 7.0 | 16.0 | 0.00 | 0.00 | 0.00 | 37 | 1014.7 |
| 20260503214545 | 80 | 236 | 5.0 | 13.0 | 0.00 | 0.00 | 0.00 | 35 | 1015.0 |
| 20260503213059 | 81 | 200 | 7.0 | 17.0 | 0.00 | 0.00 | 0.00 | 34 | 1015.2 |
| 20260503211541 | 81 | 163 | 6.0 | 23.0 | 0.00 | 0.00 | 0.00 | 35 | 1015.4 |
| 20260503210045 | 80 | 200 | 5.0 | 14.0 | 0.00 | 0.00 | 0.00 | 35 | 1015.7 |
| 20260503204546 | 80 | 166 | 5.0 | 14.0 | 0.00 | 0.00 | 0.00 | 36 | 1016.0 |
| 20260503203032 | 80 | 174 | 7.0 | 18.0 | 0.00 | 0.00 | 0.00 | 36 | 1016.3 |
| 20260503201529 | 80 | 186 | 6.0 | 13.0 | 0.00 | 0.00 | 0.00 | 34 | 1016.6 |
| 20260503200028 | 80 | 132 | 6.0 | 15.0 | 0.00 | 0.00 | 0.00 | 36 | 1016.7 |
| 20260503194525 | 80 | 192 | 4.0 | 14.0 | 0.00 | 0.00 | 0.00 | 37 | 1017.0 |
| 20260503193033 | 80 | 160 | 5.0 | 14.0 | 0.00 | 0.00 | 0.00 | 35 | 1017.3 |
| 20260503191519 | 79 | 219 | 3.0 | 14.0 | 0.00 | 0.00 | 0.00 | 33 | 1017.6 |
| 20260503190020 | 79 | 169 | 9.0 | 15.0 | 0.00 | 0.00 | 0.00 | 36 | 1017.7 |
| 20260503184531 | 78 | 202 | 5.0 | 16.0 | 0.00 | 0.00 | 0.00 | 42 | 1017.9 |
| 20260503183010 | 78 | 181 | 5.0 | 11.0 | 0.00 | 0.00 | 0.00 | 44 | 1018.2 |
| 20260503181507 | 77 | 171 | 4.0 | 11.0 | 0.00 | 0.00 | 0.00 | 47 | 1018.5 |
| 20260503180018 | 77 | 250 | 5.0 | 15.0 | 0.00 | 0.00 | 0.00 | 45 | 1018.9 |
| 20260503174507 | 77 | 210 | 5.0 | 9.0 | 0.00 | 0.00 | 0.00 | 48 | 1019.1 |
| 20260503173002 | 76 | 242 | 5.0 | 12.0 | 0.00 | 0.00 | 0.00 | 47 | 1019.4 |
| 20260503171559 | 75 | 243 | 7.0 | 15.0 | 0.00 | 0.00 | 0.00 | 49 | 1019.6 |